Wind_Speed
10 10 10 9 9 9 8 8 8 8 8 9 9 10 10 10 10 9 9 10 10 11 11 11 11 12 11 11 11 10 10 10 10 9 9 9 9 8 8 8 7 7 6
10 10 9 9 9 8 8 7 7 8 9 9 9 9 10 10 9 9 9 9 10 10 10 11 11 11 11 10 10 10 9 9 9 10 9 9 9 9 8 8 7 7 6
9 9 9 8 8 8 7 7 7 8 8 9 9 9 10 10 9 9 9 9 10 10 10 10 11 10 10 10 10 9 9 9 9 9 9 9 9 9 8 8 7 7 7
8 8 8 8 8 8 7 7 7 7 7 8 8 9 9 10 10 9 9 9 10 10 11 10 10 10 10 10 10 10 10 9 9 9 9 9 9 8 8 7 7 6 6
8 8 8 8 7 7 7 7 6 7 7 7 8 8 9 10 10 10 9 10 10 10 10 10 10 10 9 9 9 9 10 10 9 8 8 8 8 8 7 7 7 6 6
8 7 7 7 7 6 6 6 6 6 6 7 7 8 8 9 10 9 9 9 9 9 9 9 9 9 9 8 8 9 9 9 8 8 8 8 8 7 7 6 6 6 5
7 7 7 6 6 6 6 6 5 6 6 6 7 7 8 8 9 9 9 9 9 9 8 9 9 9 8 8 8 9 8 8 7 7 7 7 7 7 6 6 6 5 5
8 7 6 6 6 6 6 5 5 5 5 6 6 6 7 7 8 8 8 9 9 8 8 8 8 9 8 8 8 8 8 8 7 6 7 7 7 6 6 5 5 5 5
8 7 6 6 6 6 5 5 4 5 5 5 5 6 6 7 7 7 8 8 8 8 8 8 8 8 8 8 8 8 8 7 6 6 6 6 6 5 5 5 4 4 4
8 7 6 5 6 5 5 4 4 4 5 5 5 5 6 6 7 7 7 7 8 8 8 8 8 8 8 8 8 8 7 6 6 6 6 6 5 5 4 4 4 4 4
9 8 7 6 5 5 5 4 4 4 5 5 4 5 5 5 6 6 7 7 7 7 7 7 7 7 7 7 7 7 7 6 6 6 5 5 5 4 4 4 3 3 3
9 8 8 7 6 5 5 4 4 4 4 4 4 4 4 4 5 5 6 6 7 7 7 7 6 6 6 6 6 6 6 6 5 5 4 4 3 3 3 3 2 2 2
10 9 8 7 6 5 5 5 4 4 4 3 4 5 5 5 5 5 5 5 5 6 6 6 5 5 5 5 5 5 5 4 5 4 3 3 3 3 2 2 1 1 1
10 10 9 8 7 5 5 5 5 5 4 4 5 5 5 5 5 5 4 4 4 5 5 5 5 5 5 4 4 4 4 3 3 2 2 1 2 2 2 1 1 1 1
11 9 9 8 8 7 5 5 5 6 5 5 5 5 5 5 5 4 4 4 3 4 4 4 4 3 3 3 3 3 3 3 2 2 2 2 1 1 1 1 1 2 2
12 10 9 8 7 7 6 6 6 6 5 4 4 5 5 6 5 4 3 3 3 2 2 2 2 2 2 2 2 2 2 1 2 2 2 2 2 2 1 1 2 2 3
13 11 10 8 7 7 6 6 6 6 5 4 4 4 4 4 4 3 3 3 2 2 1 1 1 1 0 0 0 0 0 1 0 1 1 2 3 3 3 3 3 3 3
13 11 11 9 8 7 7 7 6 6 6 5 4 4 3 3 3 3 3 2 2 2 1 1 0 0 1 1 2 2 2 2 2 2 2 3 4 4 4 4 4 5 5
13 12 11 9 8 7 7 7 7 6 5 4 3 3 3 3 3 3 3 2 2 2 2 2 2 2 2 2 2 2 3 3 4 4 4 4 5 5 5 6 6 7 7
14 13 11 9 9 8 7 6 6 5 5 4 3 3 3 3 3 3 3 2 2 2 2 2 3 3 4 4 4 4 4 5 6 6 6 6 7 7 7 7 8 8 8
14 14 12 10 9 8 7 6 6 5 4 4 4 3 3 3 3 4 4 3 3 4 4 4 5 5 5 5 6 6 7 7 7 7 8 8 8 8 9 9 10 9 10
14 13 12 10 9 8 7 7 6 6 5 5 4 4 3 4 4 4 4 4 5 5 6 6 7 7 7 7 8 8 8 8 9 9 9 10 10 10 10 11 11 11 12
14 13 12 11 10 9 8 7 7 7 7 6 5 5 5 5 5 5 6 6 6 7 8 8 8 8 9 9 9 9 10 10 10 11 11 11 12 12 12 12 12 13 13
15 13 12 12 11 10 9 8 8 7 7 7 7 6 6 6 7 7 8 8 8 9 9 10 9 10 10 11 11 11 11 11 11 12 12 12 12 12 13 13 13 13 14
15 15 13 12 12 10 10 9 8 7 7 7 7 7 7 7 8 9 9 9 9 10 10 11 11 10 11 11 11 12 12 12 12 12 12 12 13 13 13 14 15 15 15
15 15 14 13 12 11 10 10 9 8 8 8 8 8 8 8 9 9 9 10 10 10 10 11 10 11 11 11 11 12 12 13 12 13 13 13 14 14 14 14 15 15 15
Wind_Direction
67 71 71 71 72 70 75 84 85 87 89 91 93 94 94 94 95 95 98 101 102 100 98 96 95 99 99 97 97 100 103 107 107 110 109 108 106 103 105 108 105 99 96
63 65 66 65 66 67 73 81 85 87 90 91 93 96 95 92 92 94 98 105 105 102 102 100 96 96 98 94 95 100 105 106 106 108 107 104 105 102 100 103 101 95 92
61 63 62 62 62 64 70 75 80 85 90 94 96 96 92 90 91 93 99 102 104 103 104 105 97 92 93 96 97 98 105 105 106 106 104 101 101 100 97 96 95 94 89
60 58 60 60 61 61 63 69 74 78 87 90 91 95 93 92 92 96 99 99 101 103 101 99 94 92 96 99 98 99 102 103 101 103 100 96 95 96 94 92 93 94 88
61 59 58 57 61 58 58 64 71 79 84 88 90 97 93 90 92 93 96 95 97 102 102 99 96 94 98 101 101 102 101 100 98 96 97 97 95 94 92 90 89 90 84
61 58 57 57 55 54 59 63 70 77 84 88 89 92 89 87 89 90 91 92 95 100 103 99 99 97 98 100 103 101 99 99 96 96 97 96 93 92 92 89 87 86 83
61 60 59 56 53 54 56 63 67 72 80 88 91 89 87 87 88 89 88 89 92 97 99 100 102 100 101 104 105 102 99 99 98 97 98 95 91 89 91 90 88 87 84
55 55 55 53 50 50 53 59 60 64 72 83 88 90 89 87 88 89 89 88 90 95 99 103 102 101 105 107 107 104 104 102 101 99 94 90 88 86 88 88 85 86 92
46 48 48 47 45 50 49 50 54 58 64 73 82 83 85 82 86 89 89 89 89 91 96 100 98 99 101 105 104 102 105 104 102 99 93 90 85 83 84 82 81 91 93
42 42 37 31 36 45 45 47 54 60 64 68 77 81 87 84 86 88 87 87 87 89 94 99 101 102 101 102 102 101 104 100 100 98 92 88 86 87 87 84 83 92 88
34 30 27 28 33 41 45 54 59 61 60 63 73 85 88 89 92 91 90 87 87 91 95 99 100 103 104 104 104 103 101 95 92 97 92 85 83 85 90 89 87 82 80
30 25 24 27 30 37 48 50 51 61 59 59 67 84 90 94 94 95 92 92 90 92 95 98 102 105 105 106 107 103 97 91 90 94 93 81 80 85 90 90 86 76 65
28 27 28 33 36 44 49 46 52 59 60 63 67 80 85 93 96 94 94 96 96 94 97 99 100 99 103 111 109 100 96 95 86 85 90 88 81 86 79 80 87 74 57
29 33 34 37 40 46 48 47 50 55 57 69 79 76 79 81 86 90 98 100 96 94 97 102 104 103 106 109 113 109 101 95 89 77 67 79 65 69 65 58 50 8 298
29 32 35 37 37 36 37 38 40 44 51 66 68 68 64 70 78 81 84 91 96 100 99 102 112 113 109 105 103 106 101 94 85 69 49 49 45 31 21 29 7 350 321
27 29 31 32 32 33 31 30 34 36 43 58 69 68 70 71 68 70 72 75 80 92 98 101 117 128 113 102 91 90 84 72 66 51 30 20 12 352 340 319 318 317 313
27 30 29 29 28 27 29 28 25 30 35 52 65 65 69 69 65 66 59 56 48 53 91 107 113 146 174 250 239 248 303 337 335 7 357 345 340 321 312 300 300 308 308
25 26 24 27 25 24 24 26 23 30 36 43 52 55 57 52 43 38 31 27 26 30 27 23 34 285 304 290 272 275 292 315 319 310 303 306 308 309 308 301 294 295 297
20 19 21 23 19 14 15 22 24 30 27 26 30 35 29 22 24 19 20 15 9 2 352 329 311 290 288 288 284 275 284 298 302 302 296 294 294 290 295 298 291 290 292
16 17 17 16 13 12 10 11 15 19 14 9 3 353 347 349 354 353 358 1 347 339 335 310 301 292 285 278 281 280 284 288 292 296 300 297 294 290 288 290 289 288 289
12 13 11 8 8 5 4 1 4 2 355 347 341 326 320 320 333 337 334 332 326 312 306 307 305 300 292 286 287 288 286 288 288 290 294 294 294 293 291 289 288 287 289
7 8 6 3 1 357 354 351 350 349 340 333 332 322 307 305 310 319 326 322 319 311 302 301 302 302 300 295 293 290 292 290 285 286 288 291 291 288 288 287 289 289 288
3 3 1 0 356 350 344 340 336 333 330 329 323 316 306 304 307 310 311 307 305 307 304 295 296 298 298 299 297 295 294 291 288 286 287 287 287 285 286 286 287 289 284
360 359 357 356 354 348 340 335 326 324 327 324 320 311 303 302 303 307 308 305 303 305 307 305 296 297 296 298 298 296 293 290 290 288 287 287 286 285 287 287 289 289 287
354 355 352 350 349 347 341 336 331 327 326 323 317 311 307 303 301 303 306 306 306 307 306 308 307 307 305 302 297 296 296 294 295 295 292 289 288 289 289 288 287 290 291
349 348 349 348 346 343 340 335 329 327 323 321 318 312 309 307 304 302 302 303 305 306 309 313 314 310 307 304 299 297 297 296 297 297 295 290 286 286 288 288 289 291 293
Height
5886 5885 5885 5885 5884 5884 5883 5883 5882 5881 5881 5880 5879 5879 5879 5879 5879 5879 5880 5880 5880 5881 5881 5881 5881 5881 5882 5882 5882 5883 5884 5884 5885 5886 5887 5888 5889 5890 5891 5892 5893 5893 5894
5888 5887 5887 5887 5886 5886 5886 5885 5884 5883 5883 5882 5881 5881 5881 5881 5881 5881 5881 5882 5882 5883 5883 5883 5883 5883 5884 5884 5885 5885 5886 5887 5887 5888 5889 5890 5891 5892 5892 5893 5894 5895 5895
5889 5889 5889 5889 5889 5888 5888 5887 5886 5886 5885 5884 5884 5883 5883 5883 5883 5883 5883 5883 5884 5885 5885 5885 5885 5886 5886 5887 5887 5887 5888 5889 5889 5890 5891 5892 5892 5893 5894 5895 5896 5896 5897
5891 5891 5891 5891 5891 5890 5890 5889 5889 5888 5887 5886 5886 5886 5885 5885 5885 5885 5885 5885 5886 5886 5887 5887 5888 5888 5888 5889 5889 5890 5890 5891 5892 5892 5893 5894 5894 5895 5895 5896 5897 5898 5898
5893 5893 5892 5892 5892 5892 5892 5891 5891 5890 5889 5889 5888 5888 5887 5887 5887 5887 5887 5887 5888 5888 5889 5889 5889 5890 5890 5891 5891 5892 5893 5893 5894 5894 5895 5895 5896 5896 5897 5898 5898 5899 5899
5895 5894 5894 5894 5894 5894 5894 5893 5892 5892 5891 5891 5890 5890 5889 5889 5889 5889 5889 5889 5890 5890 5890 5891 5891 5892 5892 5892 5893 5894 5895 5895 5896 5896 5896 5897 5897 5898 5898 5899 5899 5900 5900
5896 5896 5895 5895 5896 5895 5895 5895 5894 5894 5893 5893 5892 5892 5892 5892 5891 5891 5891 5891 5891 5892 5892 5893 5893 5893 5894 5894 5895 5896 5896 5897 5898 5898 5898 5898 5899 5899 5900 5900 5901 5901 5901
5897 5897 5897 5897 5897 5897 5896 5896 5896 5895 5895 5894 5894 5894 5894 5893 5893 5893 5893 5893 5893 5894 5894 5894 5895 5895 5895 5896 5897 5898 5898 5899 5899 5900 5900 5900 5900 5901 5901 5902 5902 5902 5903
5899 5898 5898 5898 5898 5898 5897 5897 5897 5897 5896 5896 5896 5895 5895 5895 5895 5895 5895 5895 5895 5895 5895 5896 5896 5897 5897 5898 5898 5899 5900 5901 5901 5901 5901 5901 5902 5902 5903 5903 5903 5904 5904
5901 5900 5900 5899 5899 5899 5898 5898 5898 5898 5898 5897 5897 5897 5897 5896 5896 5896 5896 5896 5897 5897 5897 5898 5898 5898 5899 5899 5900 5901 5901 5902 5902 5903 5903 5903 5903 5904 5904 5904 5904 5905 5905
5902 5902 5901 5901 5900 5900 5899 5899 5899 5899 5899 5899 5898 5898 5898 5898 5898 5898 5898 5898 5898 5898 5899 5899 5900 5900 5900 5901 5901 5902 5903 5903 5903 5904 5904 5904 5904 5905 5905 5905 5905 5906 5906
5904 5903 5902 5902 5901 5901 5901 5900 5900 5900 5900 5900 5900 5900 5900 5900 5900 5899 5899 5899 5900 5900 5900 5901 5901 5902 5902 5902 5903 5903 5903 5904 5905 5905 5905 5905 5906 5906 5906 5906 5906 5906 5907
5905 5904 5904 5903 5903 5902 5902 5902 5902 5902 5901 5901 5901 5901 5901 5901 5901 5901 5901 5901 5901 5902 5902 5902 5903 5903 5903 5903 5904 5904 5905 5905 5906 5906 5906 5906 5906 5906 5906 5907 5907 5907 5907
5907 5906 5906 5905 5904 5904 5903 5903 5902 5902 5902 5901 5902 5902 5902 5902 5902 5902 5902 5903 5903 5903 5903 5904 5904 5904 5905 5905 5905 5905 5906 5906 5907 5907 5907 5907 5907 5907 5907 5907 5907 5907 5907
5909 5908 5907 5907 5906 5906 5905 5905 5903 5904 5903 5902 5903 5903 5903 5903 5904 5904 5904 5904 5904 5904 5905 5905 5905 5905 5906 5906 5906 5906 5906 5907 5907 5907 5907 5907 5907 5907 5907 5907 5907 5907 5907
5910 5909 5909 5908 5908 5907 5907 5907 5906 5905 5905 5904 5904 5905 5905 5905 5905 5905 5905 5906 5906 5906 5906 5906 5906 5906 5906 5907 5907 5907 5907 5907 5907 5907 5907 5907 5907 5907 5907 5907 5907 5907 5907
5912 5911 5910 5910 5909 5909 5908 5908 5908 5907 5906 5906 5906 5906 5906 5906 5906 5906 5906 5906 5906 5906 5907 5906 5906 5907 5907 5907 5907 5907 5907 5907 5907 5907 5907 5907 5907 5907 5907 5907 5907 5907 5906
5914 5913 5912 5911 5911 5910 5910 5909 5909 5908 5908 5908 5907 5907 5907 5907 5907 5907 5907 5907 5907 5907 5907 5907 5907 5907 5907 5907 5907 5907 5907 5907 5907 5907 5907 5907 5907 5907 5906 5906 5906 5906 5905
5915 5914 5913 5912 5912 5912 5911 5910 5910 5909 5909 5909 5908 5908 5908 5908 5908 5908 5907 5907 5907 5907 5907 5907 5907 5906 5906 5906 5906 5906 5906 5906 5906 5906 5906 5906 5906 5906 5905 5905 5905 5904 5904
5916 5915 5914 5913 5913 5912 5912 5911 5911 5910 5910 5909 5909 5909 5908 5908 5908 5908 5907 5907 5907 5907 5906 5906 5906 5906 5906 5906 5906 5905 5905 5905 5905 5905 5905 5904 5904 5904 5904 5903 5903 5902 5902
5918 5916 5915 5914 5913 5913 5912 5912 5911 5911 5910 5910 5909 5909 5909 5908 5908 5908 5907 5907 5907 5907 5906 5906 5905 5905 5905 5905 5905 5904 5904 5904 5904 5903 5903 5903 5902 5902 5901 5901 5900 5900 5899
5919 5917 5916 5915 5913 5913 5912 5912 5911 5911 5910 5910 5909 5909 5908 5908 5908 5907 5907 5906 5906 5906 5905 5905 5904 5904 5904 5903 5903 5903 5902 5903 5902 5901 5901 5901 5900 5900 5899 5899 5898 5897 5897
5919 5918 5916 5915 5914 5913 5912 5912 5911 5910 5910 5909 5909 5909 5908 5907 5907 5907 5906 5905 5905 5905 5904 5903 5903 5903 5902 5902 5901 5901 5901 5900 5899 5899 5898 5898 5897 5897 5896 5895 5895 5894 5893
5920 5918 5916 5915 5914 5912 5912 5911 5910 5910 5909 5909 5908 5908 5907 5907 5906 5906 5905 5904 5904 5903 5903 5902 5901 5900 5900 5899 5899 5898 5898 5897 5897 5896 5896 5895 5894 5893 5893 5892 5891 5890 5889
5920 5918 5916 5915 5914 5912 5911 5910 5909 5909 5908 5908 5907 5907 5906 5906 5905 5905 5904 5903 5902 5902 5901 5900 5899 5898 5898 5897 5896 5896 5895 5894 5894 5893 5892 5892 5891 5890 5890 5889 5888 5887 5886
5920 5918 5916 5915 5913 5911 5910 5909 5909 5908 5907 5907 5906 5905 5905 5904 5904 5903 5902 5901 5901 5900 5899 5898 5897 5896 5896 5895 5894 5893 5892 5892 5890 5890 5889 5888 5887 5887 5886 5886 5885 5884 5883